AEROCUBE 16B

导读

AEROCUBE 16B是美国于2024年3月21日发射的立方星,延续Aerocube系列微纳卫星技术路线。这类小型卫星依托低成本、轻量化优势,常承担技术验证、空间环境探测等任务,依托美国成熟的小卫星发射组网体系,为航天技术试验、在轨演示验证提供平台支撑,进一步丰富了美国低轨卫星星座的技术积累与星座布局,服务新兴航天应用场景探索。

基本信息
目录编号:
59291
目录名称:
AEROCUBE 16B
国际标识:
2024-053D
轨道中心:
EARTH
卫星名称:
AEROCUBE 16B
卫星全名:
--
卫星状态:
在轨 (已飞行907 天)
发射日期:
2024-03-21 UTC
国别 :
美国 (US)
星等 :
--
该卫星已列入 空间交会检测服务 Space Conjunction Data Service (SCDS) ,当前飞行风险评估等级: 无高风险
轨道信息
数据来源 国际轨道数据
星历时间: 2026-09-14T07:20:13+0800
10小时前
查看轨道信息
半长轴: 6805.879km
偏心率: 0.0003039
轨道倾角: 49.989°
近地点辐角 0.291°
升交点赤经 232.644°
平近点角 359.805°
近地点: 425.673km
远地点: 429.811km
周期: 93.129分钟
每日圈数: 15.462386
详细信息
使用方式:
暂无
2D轨道图
3D轨道图
轨道高度分析图
轨道倾角分析图
轨道综合分析图
查看轨道综合分析图
交会数据列表
事件ID 空间交会对象 最接近时刻(TCA) 交会距离 交会风险概率(CRP) 交会风险指数(CRI) 操作
CDM_260915-173805-929106-496221
2026-09-15T
17:38:37+0000
1.569 km
极远距离
5.25694E-6 低风险 0.49
与全量物体交会距离演化趋势 订阅飞行安全评估服务
与全量物体交会风险概率演化趋势 订阅飞行安全评估服务